Location: Bolzano
(46.5170°N, 11.3670°E)
Time: 01:01:58
(UTC+01:00)

ISS - Visible Passes

Search period start: 02 December 2021 00:00
Search period end: 12 December 2021 00:00
Orbit: 417 x 423 km, 51.6° (Epoch: 01 December)

Date Brightness Start Highest point End Pass type
(mag) Time Alt. Az. Time Alt. Az. Time Alt. Az.
02 Dec -3.3 17:58:04 10° WNW 18:01:21 44° NNE 18:02:15 35° ENE visible
02 Dec -0.4 19:34:57 10° WNW 19:35:15 12° WNW 19:35:15 12° WNW visible
03 Dec -3.0 17:10:51 10° WNW 17:14:03 37° N 17:17:10 10° E visible
03 Dec -2.7 18:47:42 10° WNW 18:50:10 44° W 18:50:10 44° W visible
04 Dec -3.9 18:00:28 10° WNW 18:03:53 79° NNE 18:05:13 34° ESE visible
04 Dec -0.3 19:37:52 10° W 19:38:14 12° W 19:38:14 12° W visible
05 Dec -3.6 17:13:16 10° WNW 17:16:38 57° NNE 17:19:58 10° E visible
05 Dec -2.0 18:50:19 10° WNW 18:53:19 30° SW 18:53:27 29° SW visible
06 Dec -2.7 18:02:55 10° WNW 18:06:12 46° SW 18:08:54 14° SE visible
07 Dec -3.4 17:15:38 10° WNW 17:19:01 71° SSW 17:22:23 10° SE visible
07 Dec -0.6 18:53:54 10° WSW 18:55:19 12° SW 18:56:43 10° SSW visible
08 Dec -0.9 18:05:47 10° W 18:08:16 19° SW 18:10:45 10° S visible
09 Dec -1.5 17:18:11 10° W 17:21:10 29° SW 17:24:09 10° SSE visible
11 Dec -0.2 17:21:45 10° WSW 17:23:05 12° SW 17:24:24 10° SSW visible
